[TLELIST] Archives

 

[list_settings.list_name] Current TLEs

November 17th 2012 PDT

HST 1 20580U 90037B 12321.87485412 .00003116 00000-0 21353-3 0 1116 2 20580 028.4695 224.0027 0003189 238.5204 121.5079 15.03038093 37718 ISS (ZARYA) 1 25544U 98067A 12322.45035271 .00017257 00000-0 29293-3 0 6624 2 25544 051.6477 080.1538 0015201 295.8015 108.5695 15.51464538801821 CXO 1 25867U 99040B 12322.32827802 -.00000559 00000-0 00000+0 0 8125 2 25867 073.8601 353.5777 8717147 278.1459 359.3821 00.37801439 9738 ____________________________________________________________________ These 2-Line ...Continue Reading

[list_settings.list_name] Current TLEs

November 16th 2012 PDT

HST 1 20580U 90037B 12320.14842353 .00002440 00000-0 16460-3 0 1107 2 20580 028.4700 235.3093 0003268 221.5150 138.5191 15.03025634 37454 ISS (ZARYA) 1 25544U 98067A 12321.49226443 .00016638 00000-0 28307-3 0 6559 2 25544 051.6469 084.9099 0015277 291.4885 158.2189 15.51428750801675 CXO 1 25867U 99040B 12322.32827802 -.00000559 00000-0 00000+0 0 8125 2 25867 073.8601 353.5777 8717147 278.1459 359.3821 00.37801439 9738 ____________________________________________________________________ These 2-Line ...Continue Reading

[list_settings.list_name] Current TLEs

November 15th 2012 PDT

HST 1 20580U 90037B 12320.14842353 .00002440 00000-0 16460-3 0 1107 2 20580 028.4700 235.3093 0003268 221.5150 138.5191 15.03025634 37454 ISS (ZARYA) 1 25544U 98067A 12320.38845118 .00013066 00000-0 22452-3 0 6504 2 25544 051.6466 090.3885 0015124 288.0663 112.6404 15.51376329801503 CXO 1 25867U 99040B 12322.32827802 -.00000559 00000-0 00000+0 0 8125 2 25867 073.8601 353.5777 8717147 278.1459 359.3821 00.37801439 9738 ____________________________________________________________________ These 2-Line ...Continue Reading

[list_settings.list_name] Current TLEs

November 14th 2012 PDT

HST 1 20580U 90037B 12318.88679271 .00001772 00000-0 11613-3 0 1092 2 20580 028.4700 243.5725 0003610 210.8732 149.1649 15.03017391 37261 ISS (ZARYA) 1 25544U 98067A 12319.49552759 .00012331 00000-0 21254-3 0 6457 2 25544 051.6470 094.8213 0015237 283.4271 167.0750 15.51348796801360 CXO 1 25867U 99040B 12319.68434278 -.00000603 00000-0 00000+0 0 8110 2 25867 073.8393 353.7708 8718368 278.1219 359.6181 00.37804827 9727 ____________________________________________________________________ These 2-Line ...Continue Reading

[list_settings.list_name] Current TLEs

November 13th 2012 PDT

HST 1 20580U 90037B 12317.22674262 .00001641 00000-0 10669-3 0 1088 2 20580 028.4700 254.4420 0003622 194.2043 165.8447 15.03011609 37017 ISS (ZARYA) 1 25544U 98067A 12318.45640281 .00010936 00000-0 18964-3 0 6408 2 25544 051.6459 099.9793 0015243 279.4305 123.9156 15.51317695801204 CXO 1 25867U 99040B 12319.68434278 -.00000603 00000-0 00000+0 0 8110 2 25867 073.8393 353.7708 8718368 278.1219 359.6181 00.37804827 9727 ____________________________________________________________________ These 2-Line ...Continue Reading

[list_settings.list_name] Current TLEs

November 12th 2012 PDT

HST 1 20580U 90037B 12317.22674262 .00001641 00000-0 10669-3 0 1088 2 20580 028.4700 254.4420 0003622 194.2043 165.8447 15.03011609 37017 ISS (ZARYA) 1 25544U 98067A 12317.49025961 .00009980 00000-0 17391-3 0 6346 2 25544 051.6453 104.7777 0015308 276.0724 128.0774 15.51293258801058 CXO 1 25867U 99040B 12319.68434278 -.00000603 00000-0 00000+0 0 8110 2 25867 073.8393 353.7708 8718368 278.1219 359.6181 00.37804827 9727 ____________________________________________________________________ These 2-Line ...Continue Reading

[list_settings.list_name] Current TLEs

November 11th 2012 PDT

HST 1 20580U 90037B 12315.30107723 .00001508 00000-0 97007-4 0 1071 2 20580 028.4706 267.0544 0003730 175.1025 184.9604 15.03005673 36726 ISS (ZARYA) 1 25544U 98067A 12315.55770279 .00006907 00000-0 12303-3 0 6243 2 25544 051.6475 114.3671 0015271 266.9498 137.5446 15.51251566800750 CXO 1 25867U 99040B 12317.04117312 -.00000479 00000-0 00000+0 0 8105 2 25867 073.8136 353.9996 8716989 278.0944 359.9369 00.37807208 9710 ____________________________________________________________________ These 2-Line ...Continue Reading

[list_settings.list_name] Current TLEs

November 10th 2012 PDT

HST 1 20580U 90037B 12314.23863801 .00001489 00000-0 95640-4 0 1066 2 20580 028.4702 274.0121 0003681 164.9181 195.1521 15.03002609 36565 ISS (ZARYA) 1 25544U 98067A 12315.49182935 .00006691 00000-0 11944-3 0 6231 2 25544 051.6478 114.6930 0015269 266.8344 129.5414 15.51249363800747 CXO 1 25867U 99040B 12317.04117312 -.00000479 00000-0 00000+0 0 8105 2 25867 073.8136 353.9996 8716989 278.0944 359.9369 00.37807208 9710 ____________________________________________________________________ These 2-Line ...Continue Reading

[list_settings.list_name] Current TLEs

November 9th 2012 PDT

HST 1 20580U 90037B 12311.38332071 .00001657 00000-0 10791-3 0 1047 2 20580 028.4700 292.7077 0003654 133.7621 226.3272 15.02995751 36134 ISS (ZARYA) 1 25544U 98067A 12313.29469907 .00005971 00000-0 10757-3 0 6112 2 25544 051.6480 125.5966 0015398 257.8149 100.7055 15.51216053800399 CXO 1 25867U 99040B 12314.39690174 -.00000230 00000-0 00000+0 0 8141 2 25867 073.7887 354.2032 8714571 278.0983 359.9913 00.37804580 9709 ____________________________________________________________________ These 2-Line ...Continue Reading

[list_settings.list_name] Current TLEs

November 8th 2012 PDT

HST 1 20580U 90037B 12311.38332071 .00001657 00000-0 10791-3 0 1047 2 20580 028.4700 292.7077 0003654 133.7621 226.3272 15.02995751 36134 ISS (ZARYA) 1 25544U 98067A 12312.59429472 .00006293 00000-0 11296-3 0 6057 2 25544 051.6473 129.0708 0015313 255.0735 149.5553 15.51208285800293 CXO 1 25867U 99040B 12314.39690174 -.00000230 00000-0 00000+0 0 8141 2 25867 073.7887 354.2032 8714571 278.0983 359.9913 00.37804580 9709 ____________________________________________________________________ These 2-Line ...Continue Reading
  • This mailing list is a public mailing list - anyone may join or leave, at any time.
  • This mailing list is announce-only.

International Space Station (ISS) / Hubble Space Telescope (HST) / Chandra X-Ray Observatory Orbital Data via EMAIL

Privacy Policy:

Private list